SCP
0 1 1 1 1 1 1 1 1 1 1 0 0 0 0 0 0 0 0 0 0 0 0 0 0 0 0 0 0 0 0 0 0 0 0 0 0 0 0 0 0 0 0
0 1 1 1 1 1 1 1 1 1 1 1 0 0 0 0 0 0 0 0 0 0 0 0 0 0 0 0 0 0 0 0 0 0 0 0 0 0 0 0 0 0 0
0 1 1 2 1 1 1 1 1 1 1 1 0 0 0 0 0 0 0 0 0 0 0 0 0 0 0 0 0 0 0 0 0 0 0 0 0 0 0 0 0 0 0
0 1 1 2 2 1 1 1 1 1 1 1 0 0 0 0 0 0 0 0 0 0 0 0 0 0 0 0 0 0 0 0 0 0 0 0 0 0 0 0 0 0 0
0 1 1 2 2 1 1 1 1 1 1 1 0 0 0 0 0 0 0 0 0 0 0 0 0 0 0 0 0 0 0 0 0 0 0 0 0 0 0 0 0 0 0
0 1 1 2 2 1 1 1 1 1 1 1 0 0 0 0 0 0 0 0 0 0 0 0 0 0 0 0 0 0 0 0 0 0 0 0 0 0 0 0 0 0 0
1 1 1 2 2 1 1 1 1 1 1 0 0 0 0 0 0 0 0 0 0 0 0 0 0 0 0 0 0 0 0 0 0 0 0 0 0 0 0 0 0 0 0
1 1 1 1 2 1 1 1 1 1 1 0 0 0 0 0 0 0 0 0 0 0 0 0 0 0 0 0 0 0 0 0 0 0 0 0 0 0 0 0 0 0 0
0 1 1 1 1 1 1 1 1 1 0 0 0 0 0 0 0 0 0 0 0 0 0 0 0 0 0 0 0 0 0 0 0 0 0 0 0 0 0 0 0 0 0
0 1 1 1 1 1 1 1 1 0 0 0 0 0 0 0 0 0 0 0 0 0 0 0 0 0 0 0 0 0 0 0 0 0 0 0 0 0 0 0 0 0 0
0 1 1 1 1 1 1 1 0 0 0 0 0 0 0 0 0 0 0 0 0 0 0 0 0 0 0 0 0 0 0 0 0 0 0 0 0 0 0 0 0 0 0
0 1 1 1 1 1 1 1 0 0 0 0 0 0 0 0 0 0 0 0 0 0 0 0 0 0 0 0 0 0 0 0 0 0 0 0 0 0 0 0 0 0 0
0 1 1 1 1 1 1 1 0 0 0 0 0 0 0 0 0 0 0 0 0 0 0 0 0 0 0 0 0 0 0 0 0 0 0 0 0 0 0 0 0 0 0
0 0 1 1 1 1 1 1 0 0 0 0 0 0 0 0 0 0 0 0 0 0 0 0 0 0 0 0 0 0 0 0 0 0 0 0 0 0 0 0 0 0 0
0 0 0 1 1 1 1 1 0 0 0 0 0 0 0 0 0 0 0 0 0 0 0 0 0 0 0 0 0 0 0 0 0 0 0 0 0 0 0 0 0 0 0
0 0 0 0 1 1 1 0 0 0 0 0 0 0 0 0 0 0 0 0 0 0 0 0 0 0 0 0 0 0 0 0 0 0 0 0 0 0 0 0 0 0 0
0 0 0 0 0 0 0 0 0 0 0 0 0 0 0 0 0 0 0 0 0 0 0 0 0 0 0 0 0 0 0 0 0 0 0 0 0 0 0 0 0 0 0
0 0 0 0 0 0 0 0 0 0 0 0 0 0 0 0 0 0 0 0 0 0 0 0 0 0 0 0 0 0 0 0 0 0 0 0 0 0 0 0 0 0 0
0 0 0 0 0 0 0 0 0 0 0 0 0 0 0 0 0 0 0 0 0 0 0 0 0 0 0 0 0 0 0 0 0 0 0 0 0 0 0 0 0 0 0
0 0 0 0 0 0 0 0 0 0 0 0 0 0 0 0 0 0 0 0 0 0 0 0 0 0 0 0 0 0 0 0 0 0 0 0 0 0 0 0 0 0 0
0 0 0 0 0 0 0 0 0 0 0 0 0 0 0 0 0 0 0 0 0 0 0 0 0 0 0 0 0 0 0 0 0 0 0 0 0 0 0 0 0 0 0
0 0 0 0 0 0 0 0 0 0 0 0 0 0 0 0 0 0 0 0 0 0 0 0 0 0 0 0 0 0 0 0 0 0 0 0 0 0 0 0 0 0 0
0 0 0 0 0 0 0 0 0 0 0 0 0 0 0 0 0 0 0 0 0 0 0 0 0 0 0 0 0 0 0 0 0 0 0 0 0 0 0 0 0 0 0
0 0 0 0 0 0 0 0 0 0 0 0 0 0 0 0 0 0 0 0 0 0 0 0 0 0 0 0 0 0 0 0 0 0 0 0 0 0 0 0 0 0 0
0 0 0 0 0 0 0 0 0 0 0 0 0 0 0 0 0 0 0 0 0 0 0 0 0 0 0 0 0 0 0 0 0 0 0 0 0 0 0 0 0 0 0
0 0 0 0 0 0 0 0 0 0 0 0 0 0 0 0 0 0 0 0 0 0 0 0 0 0 0 0 0 0 0 0 0 0 0 0 0 0 0 0 0 0 0
Wind_Speed
12 18 22 22 22 21 20 19 19 18 18 17 17 17 16 16 16 15 15 14 14 14 14 15 15 15 15 15 15 15 15 15 15 14 14 13 13 13 13 11 10 11 13
15 20 22 21 22 22 21 20 19 18 18 17 17 17 16 16 16 15 15 14 14 14 14 14 15 15 15 15 15 15 14 14 13 12 11 12 13 13 13 13 13 10 12
16 19 22 21 22 21 21 20 19 18 18 17 17 17 16 16 16 15 15 14 14 14 14 15 15 15 15 15 14 14 14 13 12 9 7 9 11 13 13 13 13 12 12
16 18 20 21 21 21 21 20 19 18 18 17 17 17 17 16 16 15 15 14 14 14 15 15 14 14 14 14 14 14 13 12 10 5 7 8 9 12 12 12 12 12 12
16 17 19 21 21 21 20 20 20 19 18 17 17 17 16 16 16 15 15 15 14 15 15 14 14 14 14 13 13 13 12 11 7 7 8 8 8 11 11 11 11 11 12
16 17 19 21 21 21 20 20 19 19 18 18 17 17 17 16 16 15 15 14 14 14 14 14 14 13 13 13 13 12 11 8 5 7 7 7 8 10 11 10 11 11 12
15 17 19 21 22 21 20 20 19 19 18 18 17 17 17 16 16 16 15 14 14 14 14 14 13 13 12 12 12 11 9 5 6 7 6 7 8 10 10 10 11 11 11
14 16 18 21 20 20 20 20 19 19 18 18 17 17 17 16 16 16 15 14 14 14 14 13 12 12 11 11 11 10 8 3 6 6 6 7 8 9 10 10 10 10 10
13 15 16 18 19 19 18 19 19 18 18 17 17 17 16 16 16 15 15 14 13 13 13 12 12 11 11 10 10 9 7 2 4 5 6 6 7 8 9 9 9 9 9
12 14 15 17 18 17 17 17 17 17 17 16 16 14 14 14 15 15 14 13 13 12 12 12 11 11 10 10 9 8 5 2 5 5 4 6 6 7 7 8 7 7 8
12 13 15 16 16 16 16 16 16 15 15 15 14 14 13 12 13 12 12 12 12 12 11 11 11 11 10 9 8 6 4 2 4 3 4 6 4 5 6 6 6 6 6
15 16 15 15 15 15 12 13 12 12 13 13 12 15 11 10 9 9 12 10 11 10 11 10 11 10 7 6 7 5 3 3 3 3 4 5 3 4 5 5 5 5 5
15 14 15 15 15 14 11 10 8 8 9 11 13 13 10 9 8 8 7 8 8 9 8 9 8 6 5 4 4 3 2 2 2 2 4 4 3 3 4 4 3 3 4
14 15 15 15 14 14 12 10 10 8 8 8 10 12 10 7 8 8 6 7 7 5 6 6 4 5 5 5 4 4 3 2 1 1 3 3 3 2 2 2 2 2 3
15 15 15 15 15 13 12 10 10 9 9 10 9 10 11 8 8 8 6 6 7 6 6 5 5 6 5 5 4 4 3 3 2 2 2 4 2 2 1 1 2 2 2
15 15 14 15 15 15 12 11 10 10 9 10 9 11 12 9 8 8 8 7 6 6 6 6 6 5 4 4 4 4 3 3 3 2 1 2 2 2 2 2 2 3 3
16 15 15 15 15 16 14 13 10 9 10 9 9 12 12 10 10 8 7 7 7 6 7 5 6 5 4 4 4 4 3 3 2 3 2 1 1 1 1 3 3 3 4
15 16 16 12 15 16 14 12 9 10 10 9 9 10 12 12 11 9 7 7 7 7 6 5 5 5 5 4 4 3 3 2 3 3 2 2 2 1 1 0 3 4 4
15 16 16 15 15 15 14 12 11 10 10 9 9 9 11 12 12 10 8 7 8 7 6 6 6 5 5 4 3 3 3 3 3 3 4 3 3 3 2 1 1 3 4
15 16 16 15 14 14 12 10 9 10 10 9 9 10 12 11 13 11 8 9 9 7 7 7 7 6 4 4 3 3 3 4 4 4 4 4 3 4 4 3 3 2 3
15 16 17 16 15 13 11 11 11 11 10 10 10 12 13 13 13 11 8 10 9 8 9 9 7 7 5 4 4 3 4 5 5 4 4 4 4 4 4 4 4 3 2
15 16 17 18 16 16 13 12 11 11 9 9 9 11 14 14 13 11 12 10 10 9 10 10 8 6 5 5 4 3 3 5 5 5 4 4 5 4 4 5 4 4 4
16 17 16 18 17 17 15 11 9 8 8 9 11 11 13 14 14 13 13 11 11 10 9 11 10 10 7 6 6 4 3 3 2 4 5 5 5 4 4 4 5 5 5
16 15 17 17 17 17 16 14 16 13 12 13 12 11 13 15 15 14 14 13 12 10 10 11 11 9 8 7 6 5 4 2 3 2 4 5 5 6 5 4 5 5 5
13 13 15 16 16 17 17 18 18 15 13 11 12 14 14 13 15 15 14 13 13 11 12 12 11 11 9 8 6 5 6 4 5 4 4 3 4 4 4 5 4 4 4
10 11 13 15 16 16 18 19 20 19 17 15 15 14 13 11 12 16 15 14 13 12 13 12 12 13 10 10 8 6 5 5 5 5 6 5 5 3 4 4 4 4 3
Wind_Direction
170 166 166 165 161 158 157 155 151 148 146 144 142 139 135 131 127 124 122 121 119 117 115 111 107 103 99 95 91 88 84 82 78 75 74 75 75 73 68 60 63 66 60
162 165 164 164 161 159 157 155 151 148 147 146 144 140 137 133 130 128 126 124 122 120 117 113 109 105 101 97 94 91 87 84 82 79 82 82 75 72 68 63 58 63 61
162 165 164 164 161 160 158 155 151 150 148 147 145 143 139 136 133 132 130 127 125 122 117 113 110 106 102 100 96 93 89 86 83 83 91 83 78 72 68 64 61 62 61
163 166 166 162 161 160 159 155 152 151 149 148 145 143 141 139 137 135 132 130 126 122 117 113 111 108 106 103 99 94 90 86 82 85 79 75 76 70 66 63 61 62 61
166 168 163 162 161 160 159 157 154 152 151 149 147 146 144 142 141 138 134 131 127 123 120 116 112 109 109 106 102 97 92 88 87 82 77 73 74 71 67 67 65 62 60
169 169 162 164 163 161 160 158 156 154 153 152 150 148 146 144 142 137 134 131 128 127 123 119 115 112 111 109 105 100 95 94 107 81 77 71 73 72 70 71 67 62 60
172 170 165 165 164 162 161 159 157 156 155 154 152 150 148 144 140 136 134 133 132 130 127 123 121 118 115 113 108 103 98 87 85 85 78 73 71 72 72 69 65 65 63
174 171 166 165 164 163 163 160 158 158 157 156 154 153 148 145 141 138 137 134 135 132 129 127 126 122 118 114 109 104 98 92 97 86 78 73 71 72 71 70 66 64 61
176 173 170 169 167 164 163 160 159 159 158 157 156 152 148 146 144 141 140 138 138 135 133 131 129 125 122 117 112 105 97 51 96 84 79 72 69 73 72 70 66 62 61
179 179 175 174 171 168 165 160 159 159 157 157 153 148 144 145 146 143 144 142 142 140 139 137 133 128 124 120 113 108 115 192 97 94 80 74 67 72 73 72 68 63 59
185 186 182 177 173 170 167 161 161 159 156 155 151 144 149 156 152 151 143 145 145 143 142 140 136 130 127 121 115 120 171 130 104 87 77 58 63 74 78 74 69 66 59
189 189 187 181 174 170 166 164 167 166 163 167 163 161 165 160 151 145 134 142 143 143 143 138 132 137 154 142 136 174 155 130 123 107 82 48 53 72 76 78 71 63 54
192 190 189 184 178 171 167 167 166 166 167 169 167 167 161 154 147 150 152 150 151 156 154 144 154 159 164 147 158 163 139 139 132 115 91 45 27 54 69 70 67 59 46
198 194 193 186 181 176 171 168 167 167 167 167 169 167 163 160 161 160 163 161 162 163 157 163 165 161 166 166 172 165 163 175 153 120 84 43 17 29 46 48 51 42 30
204 199 196 191 184 179 174 170 172 171 170 168 168 172 170 166 167 164 165 165 166 162 164 167 173 168 174 173 177 180 179 183 176 164 117 73 22 2 352 345 358 358 359
205 201 196 195 188 182 179 175 174 173 170 170 171 176 176 172 170 170 168 168 167 169 170 176 179 177 178 181 183 189 194 191 198 192 165 132 95 343 329 321 322 328 330
206 201 197 198 191 186 183 178 175 174 173 173 174 178 179 176 174 174 173 172 171 172 174 179 178 185 180 183 193 198 206 215 204 203 202 232 187 134 338 318 316 317 318
208 203 199 197 194 190 184 179 176 176 176 176 177 179 182 180 179 178 176 177 173 173 178 180 183 187 187 195 198 197 209 201 220 221 218 225 240 234 186 333 311 309 307
208 203 199 197 196 191 185 180 178 177 181 179 179 181 183 183 183 183 183 180 178 181 184 184 191 193 192 197 203 209 215 216 221 222 226 228 238 251 259 158 262 302 306
207 202 199 196 197 191 185 179 177 180 184 183 183 185 184 186 188 189 187 185 183 185 188 189 190 195 199 194 199 216 219 226 229 229 232 231 232 242 251 257 247 229 268
206 202 198 197 196 189 185 181 181 184 184 186 187 188 189 190 189 191 189 188 190 192 192 193 190 190 193 191 201 213 217 225 231 226 231 239 234 235 244 250 258 267 250
207 204 201 199 196 193 193 188 188 186 187 187 187 192 193 193 193 192 193 190 193 195 195 195 192 193 185 192 208 216 223 207 208 221 227 235 240 229 235 242 250 255 268
209 206 202 199 199 197 194 186 180 180 181 188 193 194 197 195 195 195 196 194 195 197 197 197 195 196 192 194 211 221 229 231 198 193 213 225 230 233 238 240 247 251 259
213 206 203 199 201 199 195 190 186 189 192 195 192 193 194 196 197 199 198 198 197 200 201 200 200 201 200 197 201 227 251 279 253 224 199 217 230 242 247 243 246 246 252
216 207 203 201 201 200 197 194 193 199 202 195 191 194 195 196 199 200 200 201 201 202 204 202 200 202 204 206 200 198 215 230 246 256 253 239 234 235 243 252 251 253 250
218 209 204 202 203 201 200 198 198 201 200 195 194 193 194 195 198 201 201 203 204 204 205 204 203 205 206 210 208 205 205 210 215 226 248 259 264 253 243 246 248 248 251